| time (UTC) | temp F | wind direction | speed MPH | gust MPH | rain 1hr in | rain 24hr in | rain mn in | humidity % | barometer mb |
| 20260504130503 | 48 | 298 | 2.0 | 6.0 | 0.00 | 0.00 | 0.00 | 68 | 1006.8 |
| 20260504110503 | 41 | 0 | 0.0 | 0.0 | 0.00 | 0.00 | 0.00 | 71 | 1006.1 |
| 20260504100503 | 42 | 215 | 0.0 | 3.0 | 0.00 | 0.00 | 0.00 | 70 | 1006.6 |
| 20260504082004 | 46 | 211 | 0.0 | 2.0 | 0.00 | 0.00 | 0.00 | 64 | 1007.2 |
| 20260504081503 | 46 | 211 | 0.0 | 2.0 | 0.00 | 0.00 | 0.00 | 63 | 1007.3 |
| 20260504081003 | 47 | 211 | 0.0 | 1.0 | 0.00 | 0.00 | 0.00 | 63 | 1007.5 |
| 20260504080505 | 47 | 0 | 0.0 | 0.0 | 0.00 | 0.00 | 0.00 | 62 | 1007.6 |
| 20260504050503 | 55 | 0 | 0.0 | 0.0 | 0.00 | 0.00 | 0.00 | 50 | 1008.4 |
| 20260504050004 | 55 | 0 | 0.0 | 0.0 | 0.00 | 0.00 | 0.00 | 50 | 1008.5 |
| 20260504045503 | 56 | 0 | 0.0 | 0.0 | 0.00 | 0.00 | 0.00 | 49 | 1008.6 |
| 20260504045005 | 56 | 0 | 0.0 | 0.0 | 0.00 | 0.00 | 0.00 | 49 | 1008.7 |
| 20260504044504 | 56 | 0 | 0.0 | 0.0 | 0.00 | 0.00 | 0.00 | 49 | 1008.6 |
| 20260504044003 | 56 | 0 | 0.0 | 0.0 | 0.00 | 0.00 | 0.00 | 49 | 1008.7 |
| 20260504043503 | 56 | 0 | 0.0 | 0.0 | 0.00 | 0.00 | 0.00 | 48 | 1008.7 |
| 20260504043003 | 57 | 0 | 0.0 | 0.0 | 0.00 | 0.00 | 0.00 | 48 | 1008.7 |
| 20260504042503 | 57 | 0 | 0.0 | 0.0 | 0.00 | 0.00 | 0.00 | 47 | 1008.8 |
| 20260504042003 | 57 | 0 | 0.0 | 0.0 | 0.00 | 0.00 | 0.00 | 47 | 1008.9 |
| 20260504041504 | 57 | 0 | 0.0 | 0.0 | 0.00 | 0.00 | 0.00 | 46 | 1009.0 |
| 20260504041003 | 57 | 0 | 0.0 | 0.0 | 0.00 | 0.00 | 0.00 | 46 | 1008.9 |
| 20260504040503 | 58 | 0 | 0.0 | 0.0 | 0.00 | 0.00 | 0.00 | 45 | 1008.9 |
| 20260504040005 | 58 | 0 | 0.0 | 0.0 | 0.00 | 0.00 | 0.00 | 45 | 1009.0 |
| 20260504035503 | 58 | 0 | 0.0 | 0.0 | 0.00 | 0.00 | 0.00 | 45 | 1009.1 |
| 20260504035003 | 58 | 0 | 0.0 | 0.0 | 0.00 | 0.00 | 0.00 | 44 | 1009.0 |
| 20260504034503 | 58 | 0 | 0.0 | 0.0 | 0.00 | 0.00 | 0.00 | 44 | 1009.1 |
| 20260504034005 | 58 | 0 | 0.0 | 0.0 | 0.00 | 0.00 | 0.00 | 43 | 1009.1 |
| 20260504033503 | 59 | 0 | 0.0 | 0.0 | 0.00 | 0.00 | 0.00 | 43 | 1009.1 |
| 20260504033003 | 59 | 0 | 0.0 | 0.0 | 0.00 | 0.00 | 0.00 | 42 | 1009.1 |
| 20260504032503 | 59 | 0 | 0.0 | 0.0 | 0.00 | 0.00 | 0.00 | 41 | 1009.1 |
| 20260504032003 | 60 | 0 | 0.0 | 0.0 | 0.00 | 0.00 | 0.00 | 40 | 1009.1 |
| 20260504031503 | 60 | 0 | 0.0 | 0.0 | 0.00 | 0.00 | 0.00 | 40 | 1009.1 |
| 20260504031004 | 61 | 0 | 0.0 | 0.0 | 0.00 | 0.00 | 0.00 | 39 | 1009.0 |
| 20260504030503 | 62 | 0 | 0.0 | 0.0 | 0.00 | 0.00 | 0.00 | 38 | 1009.0 |
| 20260504030003 | 62 | 0 | 0.0 | 0.0 | 0.00 | 0.00 | 0.00 | 37 | 1008.9 |
| 20260504025505 | 63 | 0 | 0.0 | 0.0 | 0.00 | 0.00 | 0.00 | 36 | 1008.9 |
| 20260504025003 | 64 | 0 | 0.0 | 0.0 | 0.00 | 0.00 | 0.00 | 36 | 1008.8 |
| 20260504024504 | 64 | 0 | 0.0 | 0.0 | 0.00 | 0.00 | 0.00 | 35 | 1008.8 |
| 20260504024003 | 65 | 0 | 0.0 | 0.0 | 0.00 | 0.00 | 0.00 | 35 | 1008.8 |
| 20260504023503 | 65 | 0 | 0.0 | 0.0 | 0.00 | 0.00 | 0.00 | 34 | 1008.7 |
| 20260504023003 | 66 | 0 | 0.0 | 0.0 | 0.00 | 0.00 | 0.00 | 34 | 1008.7 |
| 20260504022503 | 67 | 0 | 0.0 | 0.0 | 0.00 | 0.00 | 0.00 | 33 | 1008.6 |
| 20260504022003 | 68 | 22 | 0.0 | 2.0 | 0.00 | 0.00 | 0.00 | 32 | 1008.6 |
| 20260504021505 | 68 | 22 | 0.0 | 2.0 | 0.00 | 0.00 | 0.00 | 31 | 1008.6 |
| 20260504021003 | 69 | 0 | 0.0 | 0.0 | 0.00 | 0.00 | 0.00 | 31 | 1008.6 |
| 20260504020503 | 70 | 0 | 0.0 | 0.0 | 0.00 | 0.00 | 0.00 | 30 | 1008.5 |
| 20260504020003 | 70 | 0 | 0.0 | 0.0 | 0.00 | 0.00 | 0.00 | 29 | 1008.5 |
| 20260504015503 | 71 | 22 | 0.0 | 3.0 | 0.00 | 0.00 | 0.00 | 29 | 1008.5 |
| 20260504015003 | 72 | 22 | 0.0 | 3.0 | 0.00 | 0.00 | 0.00 | 28 | 1008.4 |
| 20260504014503 | 73 | 0 | 0.0 | 0.0 | 0.00 | 0.00 | 0.00 | 27 | 1008.4 |
| 20260504014003 | 74 | 0 | 0.0 | 0.0 | 0.00 | 0.00 | 0.00 | 26 | 1008.4 |
| 20260504013505 | 74 | 0 | 0.0 | 0.0 | 0.00 | 0.00 | 0.00 | 25 | 1008.4 |
| 20260504013003 | 76 | 0 | 0.0 | 0.0 | 0.00 | 0.00 | 0.00 | 24 | 1008.5 |
| 20260504012503 | 76 | 0 | 0.0 | 0.0 | 0.00 | 0.00 | 0.00 | 23 | 1008.4 |
| 20260504012003 | 77 | 0 | 0.0 | 0.0 | 0.00 | 0.00 | 0.00 | 23 | 1008.4 |
| 20260504011503 | 78 | 0 | 0.0 | 0.0 | 0.00 | 0.00 | 0.00 | 22 | 1008.3 |
| 20260504011003 | 78 | 0 | 0.0 | 0.0 | 0.00 | 0.00 | 0.00 | 21 | 1008.4 |
| 20260504010503 | 79 | 0 | 0.0 | 0.0 | 0.00 | 0.00 | 0.00 | 21 | 1008.3 |
| 20260504010003 | 80 | 0 | 0.0 | 0.0 | 0.00 | 0.00 | 0.00 | 21 | 1008.4 |
| 20260504005503 | 80 | 22 | 0.0 | 1.0 | 0.00 | 0.00 | 0.00 | 20 | 1008.4 |
| 20260504005004 | 80 | 22 | 0.0 | 1.0 | 0.00 | 0.00 | 0.00 | 21 | 1008.5 |
| 20260504004505 | 80 | 22 | 0.0 | 2.0 | 0.00 | 0.00 | 0.00 | 21 | 1008.5 |
| 20260504004003 | 79 | 22 | 0.0 | 2.0 | 0.00 | 0.00 | 0.00 | 22 | 1008.5 |
| 20260504003503 | 79 | 0 | 0.0 | 0.0 | 0.00 | 0.00 | 0.00 | 24 | 1008.6 |
| 20260504003003 | 78 | 0 | 0.0 | 0.0 | 0.00 | 0.00 | 0.00 | 24 | 1008.6 |
| 20260504002503 | 78 | 0 | 0.0 | 0.0 | 0.00 | 0.00 | 0.00 | 22 | 1008.6 |
| 20260504002003 | 78 | 0 | 0.0 | 0.0 | 0.00 | 0.00 | 0.00 | 22 | 1008.6 |
| 20260504001503 | 78 | 22 | 0.0 | 1.0 | 0.00 | 0.00 | 0.00 | 21 | 1008.6 |
| 20260504001005 | 78 | 22 | 0.0 | 3.0 | 0.00 | 0.00 | 0.00 | 19 | 1008.6 |
| 20260504000503 | 79 | 22 | 0.0 | 3.0 | 0.00 | 0.00 | 0.00 | 19 | 1008.7 |
| 20260504000004 | 80 | 105 | 0.0 | 1.0 | 0.00 | 0.00 | 0.00 | 18 | 1008.8 |
| 20260503235503 | 81 | 86 | 1.0 | 3.0 | 0.00 | 0.00 | 0.00 | 19 | 1008.8 |
| 20260503235003 | 81 | 47 | 1.0 | 3.0 | 0.00 | 0.00 | 0.00 | 18 | 1008.8 |
| 20260503234503 | 82 | 350 | 1.0 | 5.0 | 0.00 | 0.00 | 0.00 | 19 | 1008.9 |
| 20260503234003 | 82 | 347 | 2.0 | 5.0 | 0.00 | 0.00 | 0.00 | 18 | 1008.9 |
| 20260503233503 | 82 | 360 | 1.0 | 5.0 | 0.00 | 0.00 | 0.00 | 19 | 1008.9 |
| 20260503233005 | 83 | 88 | 0.0 | 2.0 | 0.00 | 0.00 | 0.00 | 17 | 1009.0 |
| 20260503232503 | 83 | 103 | 0.0 | 2.0 | 0.00 | 0.00 | 0.00 | 19 | 1008.9 |
| 20260503232005 | 83 | 68 | 0.0 | 1.0 | 0.00 | 0.00 | 0.00 | 19 | 1008.9 |
| 20260503231503 | 82 | 74 | 0.0 | 1.0 | 0.00 | 0.00 | 0.00 | 19 | 1008.9 |
| 20260503231003 | 82 | 76 | 0.0 | 3.0 | 0.00 | 0.00 | 0.00 | 19 | 1008.9 |
| 20260503230503 | 82 | 7 | 1.0 | 5.0 | 0.00 | 0.00 | 0.00 | 20 | 1008.9 |
| 20260503230003 | 82 | 358 | 1.0 | 5.0 | 0.00 | 0.00 | 0.00 | 19 | 1009.0 |
| 20260503225503 | 82 | 353 | 1.0 | 3.0 | 0.00 | 0.00 | 0.00 | 19 | 1009.0 |
| 20260503225003 | 82 | 330 | 1.0 | 5.0 | 0.00 | 0.00 | 0.00 | 18 | 1009.0 |
| 20260503224505 | 82 | 343 | 1.0 | 5.0 | 0.00 | 0.00 | 0.00 | 17 | 1009.0 |
| 20260503224003 | 82 | 5 | 1.0 | 4.0 | 0.00 | 0.00 | 0.00 | 18 | 1009.1 |
| 20260503223503 | 83 | 9 | 1.0 | 4.0 | 0.00 | 0.00 | 0.00 | 17 | 1009.1 |
| 20260503223003 | 82 | 351 | 2.0 | 9.0 | 0.00 | 0.00 | 0.00 | 18 | 1009.2 |
| 20260503222503 | 82 | 336 | 2.0 | 9.0 | 0.00 | 0.00 | 0.00 | 18 | 1009.3 |
| 20260503222003 | 82 | 329 | 3.0 | 8.0 | 0.00 | 0.00 | 0.00 | 18 | 1009.4 |
| 20260503221503 | 82 | 343 | 2.0 | 8.0 | 0.00 | 0.00 | 0.00 | 18 | 1009.4 |
| 20260503221005 | 82 | 2 | 1.0 | 5.0 | 0.00 | 0.00 | 0.00 | 18 | 1009.5 |
| 20260503220503 | 82 | 344 | 1.0 | 5.0 | 0.00 | 0.00 | 0.00 | 18 | 1009.6 |
| 20260503220003 | 82 | 3 | 2.0 | 5.0 | 0.00 | 0.00 | 0.00 | 18 | 1009.7 |
| 20260503215503 | 82 | 347 | 2.0 | 9.0 | 0.00 | 0.00 | 0.00 | 19 | 1009.8 |
| 20260503215003 | 82 | 325 | 2.0 | 9.0 | 0.00 | 0.00 | 0.00 | 19 | 1009.8 |
| 20260503214503 | 83 | 327 | 2.0 | 8.0 | 0.00 | 0.00 | 0.00 | 18 | 1009.8 |
| 20260503214003 | 83 | 333 | 2.0 | 8.0 | 0.00 | 0.00 | 0.00 | 18 | 1010.0 |
| 20260503213505 | 83 | 160 | 2.0 | 6.0 | 0.00 | 0.00 | 0.00 | 19 | 1010.0 |
| 20260503213003 | 84 | 151 | 2.0 | 6.0 | 0.00 | 0.00 | 0.00 | 17 | 1010.0 |
| 20260503212503 | 84 | 95 | 1.0 | 3.0 | 0.00 | 0.00 | 0.00 | 19 | 1010.1 |
| 20260503212003 | 83 | 55 | 1.0 | 3.0 | 0.00 | 0.00 | 0.00 | 20 | 1010.2 |
| 20260503211503 | 82 | 56 | 1.0 | 3.0 | 0.00 | 0.00 | 0.00 | 24 | 1010.2 |
| 20260503211003 | 82 | 178 | 1.0 | 4.0 | 0.00 | 0.00 | 0.00 | 20 | 1010.3 |
| 20260503210503 | 81 | 189 | 1.0 | 4.0 | 0.00 | 0.00 | 0.00 | 20 | 1010.4 |
| 20260503210003 | 81 | 27 | 0.0 | 2.0 | 0.00 | 0.00 | 0.00 | 20 | 1010.5 |
| 20260503205503 | 80 | 354 | 0.0 | 2.0 | 0.00 | 0.00 | 0.00 | 23 | 1010.7 |
| 20260503205003 | 80 | 337 | 2.0 | 4.0 | 0.00 | 0.00 | 0.00 | 23 | 1010.8 |
| 20260503204503 | 79 | 339 | 2.0 | 4.0 | 0.00 | 0.00 | 0.00 | 21 | 1010.9 |
| 20260503204003 | 79 | 355 | 2.0 | 4.0 | 0.00 | 0.00 | 0.00 | 21 | 1011.0 |
| 20260503203504 | 79 | 357 | 2.0 | 4.0 | 0.00 | 0.00 | 0.00 | 23 | 1011.0 |
| 20260503203003 | 79 | 350 | 1.0 | 5.0 | 0.00 | 0.00 | 0.00 | 22 | 1011.1 |
| 20260503202503 | 78 | 359 | 2.0 | 5.0 | 0.00 | 0.00 | 0.00 | 22 | 1011.1 |
| 20260503202003 | 78 | 14 | 2.0 | 6.0 | 0.00 | 0.00 | 0.00 | 21 | 1011.2 |
| 20260503201504 | 79 | 12 | 2.0 | 6.0 | 0.00 | 0.00 | 0.00 | 22 | 1011.3 |
| 20260503201003 | 80 | 6 | 1.0 | 3.0 | 0.00 | 0.00 | 0.00 | 21 | 1011.3 |
| 20260503200503 | 79 | 5 | 2.0 | 5.0 | 0.00 | 0.00 | 0.00 | 23 | 1011.4 |
| 20260503200003 | 79 | 23 | 1.0 | 5.0 | 0.00 | 0.00 | 0.00 | 22 | 1011.4 |
| 20260503195505 | 79 | 38 | 1.0 | 3.0 | 0.00 | 0.00 | 0.00 | 21 | 1011.4 |
| 20260503195003 | 79 | 47 | 1.0 | 4.0 | 0.00 | 0.00 | 0.00 | 23 | 1011.4 |
| 20260503194503 | 79 | 50 | 1.0 | 4.0 | 0.00 | 0.00 | 0.00 | 23 | 1011.4 |
| 20260503194003 | 79 | 25 | 1.0 | 5.0 | 0.00 | 0.00 | 0.00 | 24 | 1011.5 |
| 20260503193503 | 79 | 1 | 1.0 | 5.0 | 0.00 | 0.00 | 0.00 | 23 | 1011.5 |
| 20260503193003 | 79 | 10 | 1.0 | 4.0 | 0.00 | 0.00 | 0.00 | 22 | 1011.6 |
| 20260503192503 | 79 | 28 | 2.0 | 4.0 | 0.00 | 0.00 | 0.00 | 22 | 1011.6 |
| 20260503192003 | 79 | 24 | 2.0 | 6.0 | 0.00 | 0.00 | 0.00 | 24 | 1011.6 |
| 20260503191503 | 80 | 40 | 2.0 | 6.0 | 0.00 | 0.00 | 0.00 | 21 | 1011.5 |
| 20260503191005 | 80 | 71 | 1.0 | 4.0 | 0.00 | 0.00 | 0.00 | 24 | 1011.6 |
| 20260503190504 | 79 | 25 | 1.0 | 5.0 | 0.00 | 0.00 | 0.00 | 25 | 1011.7 |
| 20260503190003 | 78 | 32 | 2.0 | 5.0 | 0.00 | 0.00 | 0.00 | 24 | 1011.9 |
| 20260503185503 | 78 | 57 | 1.0 | 3.0 | 0.00 | 0.00 | 0.00 | 23 | 1011.9 |
| 20260503185003 | 78 | 80 | 1.0 | 3.0 | 0.00 | 0.00 | 0.00 | 25 | 1012.0 |
| 20260503184503 | 79 | 89 | 1.0 | 3.0 | 0.00 | 0.00 | 0.00 | 24 | 1012.2 |
| 20260503184003 | 78 | 70 | 1.0 | 3.0 | 0.00 | 0.00 | 0.00 | 24 | 1012.4 |
| 20260503183503 | 78 | 76 | 1.0 | 3.0 | 0.00 | 0.00 | 0.00 | 25 | 1012.4 |
| 20260503183003 | 78 | 95 | 1.0 | 4.0 | 0.00 | 0.00 | 0.00 | 24 | 1012.4 |
| 20260503182503 | 78 | 63 | 1.0 | 4.0 | 0.00 | 0.00 | 0.00 | 24 | 1012.6 |
| 20260503182003 | 77 | 34 | 1.0 | 4.0 | 0.00 | 0.00 | 0.00 | 23 | 1012.7 |
| 20260503181505 | 77 | 18 | 2.0 | 5.0 | 0.00 | 0.00 | 0.00 | 24 | 1012.8 |
| 20260503181003 | 77 | 17 | 2.0 | 5.0 | 0.00 | 0.00 | 0.00 | 23 | 1012.9 |
| 20260503180503 | 76 | 18 | 2.0 | 5.0 | 0.00 | 0.00 | 0.00 | 25 | 1013.0 |
| 20260503180003 | 76 | 7 | 2.0 | 5.0 | 0.00 | 0.00 | 0.00 | 24 | 1013.1 |
| 20260503175503 | 76 | 7 | 1.0 | 3.0 | 0.00 | 0.00 | 0.00 | 25 | 1013.3 |
| 20260503175005 | 76 | 53 | 1.0 | 3.0 | 0.00 | 0.00 | 0.00 | 24 | 1013.4 |
| 20260503174503 | 76 | 64 | 1.0 | 3.0 | 0.00 | 0.00 | 0.00 | 24 | 1013.5 |
| 20260503174003 | 76 | 73 | 1.0 | 3.0 | 0.00 | 0.00 | 0.00 | 25 | 1013.5 |
| 20260503173503 | 76 | 79 | 1.0 | 3.0 | 0.00 | 0.00 | 0.00 | 25 | 1013.6 |
| 20260503173003 | 76 | 32 | 1.0 | 5.0 | 0.00 | 0.00 | 0.00 | 26 | 1013.6 |
| 20260503172504 | 75 | 356 | 2.0 | 6.0 | 0.00 | 0.00 | 0.00 | 26 | 1013.7 |
| 20260503172003 | 75 | 328 | 2.0 | 6.0 | 0.00 | 0.00 | 0.00 | 25 | 1013.8 |
| 20260503171505 | 75 | 330 | 2.0 | 5.0 | 0.00 | 0.00 | 0.00 | 24 | 1013.8 |
| 20260503171003 | 75 | 345 | 1.0 | 5.0 | 0.00 | 0.00 | 0.00 | 24 | 1013.9 |
| 20260503170503 | 74 | 344 | 2.0 | 8.0 | 0.00 | 0.00 | 0.00 | 25 | 1014.0 |
| 20260503151003 | 66 | 336 | 1.0 | 4.0 | 0.00 | 0.00 | 0.00 | 37 | 1014.4 |
| 20260503150503 | 65 | 332 | 1.0 | 2.0 | 0.00 | 0.00 | 0.00 | 37 | 1014.4 |